Meteo Giornale » Osservazioni meteo Capo Verde » San Pedro
ore: 04:00 - Osservazioni Meteo San Pedro
Lat. 16° 50' N Lon. 25° 40' W Alt. 20 metri s.l.m.
26 °C
Poco Nuvoloso
Temp. 24 Ore
26 °C
31 °C
Est/Nord-Est
16.7 Km/h
Dew point 23 °C
Umidità 83 %
Visibilità 10 Km
Il sole sorge alle ore 06:29
Il sole tramonta alle ore 18:56
| Data e Ora | Cielo e Fenomeni | T °C | DP °C | Um. % | Pres. hPa | Vis. km | Vento km/h | |
|---|---|---|---|---|---|---|---|---|
| Oggi h: 04:00 | Poco Nuvoloso | 26 | 23 | 83 | 1014 | 10 | E/NE 16.7 | |
| Oggi h: 03:00 | Nuvoloso | 27 | 24 | 83 | 1014 | 10 | NE 16.7 | |
| Oggi h: 02:00 | Poco Nuvoloso | 27 | 24 | 83 | 1014 | 10 | E/NE 22.2 | |
| Oggi h: 01:00 | Poco Nuvoloso | 27 | 24 | 83 | 1014 | 10 | NE 18.5 | |
| Oggi h: 00:00 | Nuvoloso | 27 | 24 | 83 | 1015 | 10 | NE 20.3 | |
| Ieri h: 23:00 | Nuvoloso | 27 | 23 | 78 | 1015 | 10 | NE 22.2 | |
| Ieri h: 22:00 | Nuvoloso | 27 | 24 | 83 | 1015 | 10 | NE 22.2 | |
| Ieri h: 21:00 | Nuvoloso | 27 | 24 | 83 | 1014 | 10 | NE 25.9 | |
| Ieri h: 20:00 | Poco Nuvoloso | 28 | 24 | 78 | 1014 | 10 | NE 24 | |
| Ieri h: 19:00 | Poco Nuvoloso | 28 | 23 | 74 | 1013 | 10 | NE 27.8 | |
| Ieri h: 18:00 | Nuvoloso | 29 | 23 | 70 | 1013 | 10 | NE 27.8 | |
| Ieri h: 17:00 | Nuvoloso | 30 | 23 | 66 | 1013 | 10 | NE 27.8 | |
| Ieri h: 16:00 | Nuvoloso | 30 | 23 | 66 | 1012 | 10 | N/NE 29.6 | |
| Ieri h: 15:00 | Poco Nuvoloso | 30 | 22 | 62 | 1012 | 10 | NE 33.3 | |
| Ieri h: 13:00 | Nuvoloso | 31 | 23 | 62 | 1014 | 10 | N/NE 27.8 | |
| Ieri h: 10:00 | Molto Nuvoloso | 30 | 22 | 62 | 1014 | 10 | NE 29.6 | |
| Ieri h: 09:00 | Nuvoloso | 28 | 23 | 74 | 1014 | 10 | NE 25.9 | |
| Ieri h: 08:00 | Nuvoloso | 27 | 23 | 78 | 1013 | 10 | E/NE 27.8 | |
| Ieri h: 07:00 | Nuvoloso | 26 | 22 | 78 | 1013 | 10 | NE 27.8 | |
| Ieri h: 06:00 | Molto Nuvoloso | 26 | 22 | 78 | 1013 | 10 | NE 37 | |
| Ieri h: 05:00 | Nuvoloso | 26 | 22 | 78 | 1012 | 10 | NE 31.5 | |



